Boscobel, WI

5:55 PM CDT on September 28, 2016 (GMT -0500)
Boscobel

Weather History for KOVS - November, 2012

Change the Weather History Date:

Friday, November 2, 2012

  Actual Average (KPDC) Record (KPDC)
Temperature  
Mean Temperature 34 °F -  
Max Temperature 48 °F 53 °F 75 °F (1953)
Min Temperature 21 °F 37 °F 13 °F (1966)
Degree Days  
Heating Degree Days 32    
Moisture  
Dew Point 25 °F    
Average Humidity 71    
Maximum Humidity 96    
Minimum Humidity 42    
Precipitation  
Precipitation 0.00 in - - ()
Sea Level Pressure  
Sea Level Pressure 30.12 in    
Wind  
Wind Speed 1 mph (ENE)    
Max Wind Speed 6 mph    
Max Gust Speed -    
Visibility 10 miles    
Events      
Averages and records for this station are not official NWS values.
T = Trace of Precipitation, MM = Missing Value Source: NWS Daily Summary

Daily Weather History Graph

Daily Weather History Graph

Search for Another Location

Airport or City:

Trip Planner

Search our weather history database for the weather conditions in past years. The results will help you decide how hot, cold, wet, or windy it might be!

Date:

Astronomy

Nov. 02, 2012 Rise Set
Actual Time 7:39 AM CDT 5:52 PM CDT
Civil Twilight 7:09 AM CDT 6:22 PM CDT
Nautical Twilight 6:36 AM CDT 6:55 PM CDT
Astronomical Twilight 6:02 AM CDT 7:28 PM CDT
Moon 8:36 PM CDT (11/2) 11:03 AM CDT (11/2)
Length of Visible Light 11h 12m
Length of Day
10h 13m
Waning Gibbous, 87% of the Moon is Illuminated
Nov 2
Waning Gibbous
Nov 6
Last Quarter
Nov 13
New
Nov 20
First Quarter
Nov 28
Full

Hourly Weather History & Observations

Time (CDT) Temp. Windchill Dew Point Humidity Pressure Visibility Wind Dir Wind Speed Gust Speed Precip Events Conditions
12:53 AM 30.0 °F - 24.1 °F 79% 30.04 in 10.0 mi Calm Calm - N/A   Clear
1:53 AM 27.0 °F - 23.0 °F 85% 30.05 in 10.0 mi Calm Calm - N/A   Clear
2:53 AM 25.0 °F - 23.0 °F 92% 30.06 in 10.0 mi Calm Calm - N/A   Clear
3:53 AM 25.0 °F - 23.0 °F 92% 30.07 in 10.0 mi Calm Calm - N/A   Clear
4:53 AM 24.1 °F - 21.9 °F 91% 30.08 in 9.0 mi Calm Calm - N/A   Clear
5:53 AM 21.9 °F - 21.0 °F 96% 30.09 in 10.0 mi Calm Calm - N/A   Clear
6:53 AM 21.9 °F - 19.9 °F 92% 30.12 in 10.0 mi Calm Calm - N/A   Clear
7:53 AM 21.0 °F - 19.9 °F 96% 30.13 in 10.0 mi Calm Calm - N/A   Clear
8:53 AM 26.1 °F - 25.0 °F 96% 30.14 in 10.0 mi Calm Calm - N/A   Clear
9:53 AM 34.0 °F - 30.0 °F 85% 30.16 in 10.0 mi Calm Calm - N/A   Clear
10:53 AM 39.0 °F 35.7 °F 28.0 °F 65% 30.16 in 10.0 mi East 4.6 mph - N/A   Clear
11:53 AM 41.0 °F 38.0 °F 27.0 °F 57% 30.16 in 10.0 mi ENE 4.6 mph - N/A   Clear
12:53 PM 44.1 °F 40.8 °F 26.1 °F 49% 30.15 in 10.0 mi Variable 5.8 mph - N/A   Clear
1:53 PM 45.0 °F - 26.1 °F 48% 30.13 in 10.0 mi Calm Calm - N/A   Clear
2:53 PM 46.9 °F - 25.0 °F 42% 30.12 in 10.0 mi Calm Calm - N/A   Clear
3:53 PM 46.9 °F - 25.0 °F 42% 30.12 in 10.0 mi Calm Calm - N/A   Clear
4:53 PM 46.0 °F 44.8 °F 24.1 °F 42% 30.12 in 10.0 mi ENE 3.5 mph - N/A   Clear
5:53 PM 44.1 °F 42.5 °F 24.1 °F 45% 30.11 in 10.0 mi East 3.5 mph - N/A   Clear
6:53 PM 42.1 °F - 26.1 °F 53% 30.13 in 10.0 mi Calm Calm - N/A   Clear
7:53 PM 39.0 °F - 27.0 °F 62% 30.15 in 10.0 mi Calm Calm - N/A   Clear
8:53 PM 39.0 °F 36.8 °F 27.0 °F 62% 30.15 in 10.0 mi ENE 3.5 mph - N/A   Clear
9:53 PM 35.1 °F - 26.1 °F 70% 30.17 in 10.0 mi Calm Calm - N/A   Clear
10:53 PM 33.1 °F - 27.0 °F 78% 30.19 in 10.0 mi Calm Calm - N/A   Overcast
11:53 PM 34.0 °F - 27.0 °F 75% 30.18 in 10.0 mi Calm Calm - N/A   Overcast